GW2089 Weather Reports


time (UTC)temp
C
wind
direction
speed
KPH
gust
KPH
rain 1hr
cm
rain 24hr
cm
rain mn
cm
humidity
%
barometer
mb
20260506103108 14 310 1.6 1.6 0.00 0.00 0.00 40 1010.6
20260506102606 13 350 1.6 1.6 0.00 0.00 0.00 41 1010.6
20260506102103 13 25 1.6 1.6 0.00 0.00 0.00 39 1010.7
20260506101600 13 355 1.6 1.6 0.00 0.00 0.00 40 1010.6
20260506101057 13 289 0.0 0.0 0.00 0.00 0.00 40 1010.8
20260506100555 13 353 0.0 0.0 0.00 0.00 0.00 39 1010.8
20260506100053 13 236 3.2 4.8 0.00 0.00 0.00 38 1011.0
20260506095551 14 353 0.0 1.6 0.00 0.00 0.00 38 1010.7
20260506095048 14 45 0.0 0.0 0.00 0.00 0.00 38 1010.9
20260506094545 14 71 0.0 0.0 0.00 0.00 0.00 37 1010.7
20260506094043 14 69 0.0 1.6 0.00 0.00 0.00 38 1010.8
20260506093541 13 90 1.6 1.6 0.00 0.00 0.00 39 1010.9
20260506093038 13 5 0.0 0.0 0.00 0.00 0.00 40 1010.7
20260506092536 13 27 0.0 1.6 0.00 0.00 0.00 40 1010.9
20260506092033 13 44 3.2 4.8 0.00 0.00 0.00 39 1011.2
20260506091531 13 16 0.0 1.6 0.00 0.00 0.00 40 1010.9
20260506091028 13 301 1.6 3.2 0.00 0.00 0.00 41 1011.1
20260506090526 13 298 1.6 1.6 0.00 0.00 0.00 41 1011.1
20260506090022 13 28 0.0 1.6 0.00 0.00 0.00 41 1011.1
20260506085519 13 304 1.6 1.6 0.00 0.00 0.00 41 1011.2
20260506085015 13 345 0.0 0.0 0.00 0.00 0.00 43 1011.3
20260506084512 12 44 1.6 3.2 0.00 0.00 0.00 38 1011.3
20260506084008 13 3 0.0 1.6 0.00 0.00 0.00 38 1011.5
20260506083506 13 73 1.6 3.2 0.00 0.00 0.00 42 1011.4
20260506083003 12 0 1.6 1.6 0.00 0.00 0.00 40 1011.3
20260506082500 12 73 0.0 1.6 0.00 0.00 0.00 41 1011.1
20260506081955 12 33 4.8 4.8 0.00 0.00 0.00 42 1011.5
20260506081454 12 22 3.2 3.2 0.00 0.00 0.00 40 1011.4
20260506080951 12 3 0.0 0.0 0.00 0.00 0.00 43 1011.4
20260506080448 12 41 0.0 0.0 0.00 0.00 0.00 43 1011.4
20260506073431 12 344 0.0 0.0 0.00 0.00 0.00 45 1011.4
20260506072929 11 359 3.2 3.2 0.00 0.00 0.00 46 1011.6
20260506072426 11 358 0.0 1.6 0.00 0.00 0.00 46 1011.6
20260506071924 11 97 3.2 8.0 0.00 0.00 0.00 46 1011.4
20260506071422 11 1 0.0 1.6 0.00 0.00 0.00 47 1011.4
20260506070918 11 313 0.0 0.0 0.00 0.00 0.00 47 1011.4
20260506070415 11 89 1.6 1.6 0.00 0.00 0.00 50 1011.7
20260506062352 11 60 0.0 1.6 0.00 0.00 0.00 57 1011.3
20260506061848 11 251 0.0 0.0 0.00 0.00 0.00 56 1011.3
20260506061345 10 342 0.0 0.0 0.00 0.00 0.00 58 1011.6
20260506060843 10 359 1.6 3.2 0.00 0.00 0.00 56 1011.4
20260506060341 10 27 1.6 3.2 0.00 0.00 0.00 58 1011.3
20260506051313 10 348 0.0 0.0 0.00 0.00 0.00 68 1011.4
20260506050810 9 357 0.0 0.0 0.00 0.00 0.00 71 1011.2
20260506050308 10 7 0.0 0.0 0.00 0.00 0.00 70 1011.2
20260506044758 9 342 0.0 0.0 0.00 0.00 0.00 73 1011.5
20260506044256 10 327 0.0 0.0 0.00 0.00 0.00 72 1011.3
20260506043753 10 340 0.0 0.0 0.00 0.00 0.00 67 1011.1
20260506043250 10 354 0.0 0.0 0.00 0.00 0.00 71 1011.1
20260506042749 8 348 0.0 0.0 0.00 0.00 0.00 74 1011.1
20260506042247 8 351 0.0 0.0 0.00 0.00 0.00 75 1011.2
20260506041745 7 312 0.0 0.0 0.00 0.00 0.00 76 1011.2
20260506041242 7 295 0.0 0.0 0.00 0.00 0.00 76 1011.1
20260506040739 6 289 0.0 0.0 0.00 0.00 0.00 77 1011.1
20260506040236 6 292 0.0 0.0 0.00 0.00 0.00 79 1011.0
20260506035733 5 284 0.0 0.0 0.00 0.00 0.00 79 1011.1
20260506035230 5 284 0.0 0.0 0.00 0.00 0.00 81 1011.0
20260506034727 4 284 0.0 0.0 0.00 0.00 0.00 82 1011.1
20260506034224 3 284 0.0 0.0 0.00 0.00 0.00 83 1010.8
20260506033721 3 282 0.0 0.0 0.00 0.00 0.00 84 1011.1
20260506033218 3 281 0.0 0.0 0.00 0.00 0.00 85 1011.1
20260506032715 2 284 0.0 0.0 0.00 0.00 0.00 85 1011.0
20260506032212 2 292 0.0 0.0 0.00 0.00 0.00 85 1010.6
20260506031708 2 292 0.0 0.0 0.00 0.00 0.00 86 1010.8
20260506031206 2 292 0.0 0.0 0.00 0.00 0.00 86 1010.6
20260506030704 2 284 0.0 0.0 0.00 0.00 0.00 86 1010.6
20260506030201 2 279 0.0 0.0 0.00 0.00 0.00 86 1010.4
20260506025658 2 270 0.0 0.0 0.00 0.00 0.00 86 1010.4
20260506025154 2 267 0.0 0.0 0.00 0.00 0.00 86 1010.5
20260506024651 2 294 0.0 0.0 0.00 0.00 0.00 86 1010.5
20260506024148 2 299 0.0 0.0 0.00 0.00 0.00 86 1010.3
20260506023644 2 300 0.0 0.0 0.00 0.00 0.00 86 1010.3
20260506023141 2 299 0.0 0.0 0.00 0.00 0.00 85 1010.4
20260506022639 3 289 0.0 0.0 0.00 0.00 0.00 85 1010.3
20260506022136 3 289 0.0 0.0 0.00 0.00 0.00 85 1010.2
20260506021634 3 280 0.0 0.0 0.00 0.00 0.00 85 1010.0
20260506021131 3 279 0.0 0.0 0.00 0.00 0.00 84 1010.2
20260506020628 3 276 0.0 0.0 0.00 0.00 0.00 84 1010.1
20260506020125 3 291 0.0 1.6 0.00 0.00 0.00 84 1010.0
20260506015623 3 304 0.0 0.0 0.00 0.00 0.00 84 1010.0
20260506015119 3 309 0.0 0.0 0.00 0.00 0.00 84 1010.1
20260506014612 3 309 0.0 0.0 0.00 0.00 0.00 84 1009.9
20260506014107 3 310 0.0 0.0 0.00 0.00 0.00 84 1010.0
20260506013605 4 313 0.0 0.0 0.00 0.00 0.00 84 1010.0
20260506013102 4 313 0.0 0.0 0.00 0.00 0.00 84 1009.9
20260506012558 4 312 0.0 0.0 0.00 0.00 0.00 83 1009.8
20260506012054 4 312 0.0 0.0 0.00 0.00 0.00 82 1009.8
20260506011552 4 312 0.0 0.0 0.00 0.00 0.00 82 1009.8
20260506011043 5 312 0.0 0.0 0.00 0.00 0.00 82 1009.8
20260506010542 5 312 0.0 0.0 0.00 0.00 0.00 82 1009.6
20260506010038 4 323 0.0 0.0 0.00 0.00 0.00 82 1009.5
20260506005535 4 323 0.0 0.0 0.00 0.00 0.00 81 1009.5
20260506005031 5 323 0.0 0.0 0.00 0.00 0.00 80 1009.5
20260506004529 4 321 0.0 0.0 0.00 0.00 0.00 80 1009.3
20260506004025 5 321 0.0 0.0 0.00 0.00 0.00 79 1009.4
20260506003522 5 321 0.0 0.0 0.00 0.00 0.00 78 1009.3
20260506003018 5 321 0.0 0.0 0.00 0.00 0.00 78 1009.3
20260506002514 5 321 0.0 0.0 0.00 0.00 0.00 77 1009.2
20260506002010 5 321 0.0 0.0 0.00 0.00 0.00 77 1009.3
20260506001506 5 321 0.0 0.0 0.00 0.00 0.00 76 1009.2
20260506001004 5 320 0.0 0.0 0.00 0.00 0.00 76 1009.2
20260506000501 5 321 0.0 0.0 0.00 0.00 0.00 75 1009.3
20260505235958 5 321 0.0 0.0 0.00 0.00 0.00 75 1009.3
20260505235456 5 320 0.0 0.0 0.00 0.00 0.00 75 1009.0
20260505234953 5 320 0.0 0.0 0.00 0.00 0.00 74 1008.8
20260505234450 5 320 0.0 0.0 0.00 0.00 0.00 73 1009.3
20260505233947 6 320 0.0 0.0 0.00 0.00 0.00 73 1009.1
20260505233444 6 320 0.0 0.0 0.00 0.00 0.00 73 1009.0
20260505232942 6 302 0.0 0.0 0.00 0.00 0.00 72 1008.9
20260505232440 6 327 0.0 0.0 0.00 0.00 0.00 71 1008.9
20260505231936 6 307 0.0 0.0 0.00 0.00 0.00 71 1009.1
20260505231434 6 297 0.0 0.0 0.00 0.00 0.00 71 1008.8
20260505230932 6 351 0.0 0.0 0.00 0.00 0.00 70 1008.9
20260505230429 6 329 0.0 0.0 0.00 0.00 0.00 69 1009.1
20260505225925 6 328 0.0 0.0 0.00 0.00 0.00 68 1008.9
20260505225422 6 332 0.0 0.0 0.00 0.00 0.00 67 1008.8
20260505224918 6 349 0.0 0.0 0.00 0.00 0.00 67 1009.0
20260505224416 6 355 0.0 0.0 0.00 0.00 0.00 66 1009.1
20260505223912 7 334 0.0 0.0 0.00 0.00 0.00 65 1009.0
20260505223409 7 339 0.0 0.0 0.00 0.00 0.00 64 1008.9
20260505222905 7 342 0.0 0.0 0.00 0.00 0.00 64 1009.0
20260505222402 7 321 0.0 0.0 0.00 0.00 0.00 63 1008.9
20260505221858 7 325 0.0 0.0 0.00 0.00 0.00 63 1009.1
20260505221355 7 283 0.0 0.0 0.00 0.00 0.00 62 1008.9
20260505220853 7 8 0.0 0.0 0.00 0.00 0.00 62 1008.8
20260505220349 7 335 0.0 0.0 0.00 0.00 0.00 61 1008.8
20260505215847 7 347 0.0 0.0 0.00 0.00 0.00 62 1008.9
20260505215345 7 357 0.0 0.0 0.00 0.00 0.00 63 1008.8
20260505214843 7 322 0.0 0.0 0.00 0.00 0.00 62 1008.7
20260505214340 7 317 0.0 0.0 0.00 0.00 0.00 62 1008.8
20260505213837 7 335 0.0 0.0 0.00 0.00 0.00 61 1008.8
20260505213335 8 328 0.0 0.0 0.00 0.00 0.00 61 1008.7
20260505212831 8 308 0.0 0.0 0.00 0.00 0.00 61 1008.6
20260505212328 8 327 0.0 0.0 0.00 0.00 0.00 62 1008.5
20260505211824 8 267 0.0 0.0 0.00 0.00 0.00 62 1008.5
20260505211322 8 253 1.6 1.6 0.00 0.00 0.00 62 1008.8
20260505210818 8 345 0.0 0.0 0.00 0.00 0.00 62 1008.5
20260505210315 8 350 0.0 0.0 0.00 0.00 0.00 61 1008.4
20260505205812 8 276 0.0 1.6 0.00 0.00 0.00 61 1008.6
20260505205310 8 312 0.0 0.0 0.00 0.00 0.00 60 1008.4
20260505204807 8 338 0.0 0.0 0.00 0.00 0.00 59 1008.5
20260505204305 8 3 0.0 1.6 0.00 0.00 0.00 58 1008.5
20260505203802 8 349 0.0 1.6 0.00 0.00 0.00 57 1008.5
20260505203258 8 326 0.0 0.0 0.00 0.00 0.00 57 1008.3
20260505202754 8 352 0.0 0.0 0.00 0.00 0.00 57 1008.1
20260505202251 8 320 0.0 0.0 0.00 0.00 0.00 58 1008.4
20260505201747 8 336 0.0 1.6 0.00 0.00 0.00 59 1008.2
20260505201245 8 348 0.0 0.0 0.00 0.00 0.00 59 1008.3
20260505200743 8 345 0.0 0.0 0.00 0.00 0.00 59 1008.2
20260505200240 8 348 0.0 1.6 0.00 0.00 0.00 60 1008.1
20260505195735 8 352 0.0 0.0 0.00 0.00 0.00 60 1008.0
20260505195233 8 342 0.0 0.0 0.00 0.00 0.00 61 1008.0
20260505194730 8 347 0.0 0.0 0.00 0.00 0.00 60 1008.0
20260505194226 8 338 0.0 0.0 0.00 0.00 0.00 60 1008.2
20260505193722 8 351 0.0 0.0 0.00 0.00 0.00 60 1007.9
20260505193220 8 310 0.0 0.0 0.00 0.00 0.00 60 1007.8
20260505192718 8 327 0.0 0.0 0.00 0.00 0.00 59 1007.9
20260505192216 8 318 0.0 0.0 0.00 0.00 0.00 59 1008.0
20260505191714 8 359 1.6 3.2 0.00 0.00 0.00 59 1008.1
20260505191212 8 20 1.6 1.6 0.00 0.00 0.00 60 1008.0
20260505190707 8 12 0.0 0.0 0.00 0.00 0.00 61 1007.8
20260505190202 8 337 0.0 0.0 0.00 0.00 0.00 61 1008.1
20260505185659 8 348 0.0 0.0 0.00 0.00 0.00 61 1007.9
20260505185155 8 335 0.0 0.0 0.00 0.00 0.00 61 1007.8
20260505184651 8 308 0.0 0.0 0.00 0.00 0.00 61 1007.9
20260505184149 8 355 0.0 0.0 0.00 0.00 0.00 61 1008.1
20260505183645 8 359 0.0 0.0 0.00 0.00 0.00 61 1007.6
20260505183143 8 351 0.0 1.6 0.00 0.00 0.00 62 1007.8
20260505182639 8 19 0.0 1.6 0.00 0.00 0.00 62 1007.7
20260505182136 8 354 0.0 1.6 0.00 0.00 0.00 62 1007.8
20260505181632 8 304 0.0 0.0 0.00 0.00 0.00 63 1007.7
20260505181130 8 284 0.0 0.0 0.00 0.00 0.00 63 1007.6
20260505180626 8 4 1.6 1.6 0.00 0.00 0.00 63 1007.6
20260505180124 8 0 0.0 0.0 0.00 0.00 0.00 63 1007.2
20260505175619 9 345 0.0 0.0 0.00 0.00 0.00 64 1007.5
20260505175116 8 338 0.0 0.0 0.00 0.00 0.00 63 1007.5
20260505174613 9 11 1.6 1.6 0.00 0.00 0.00 62 1007.3
20260505174109 9 328 0.0 0.0 0.00 0.00 0.00 61 1007.5
20260505173606 9 335 1.6 1.6 0.00 0.00 0.00 62 1007.4
20260505173102 9 351 1.6 1.6 0.00 0.00 0.00 64 1007.5
20260505172600 9 334 0.0 0.0 0.00 0.00 0.00 65 1007.5
20260505172056 9 322 0.0 0.0 0.00 0.00 0.00 66 1007.4
20260505171551 10 306 0.0 0.0 0.00 0.00 0.00 66 1007.5
20260505171049 10 307 0.0 0.0 0.00 0.00 0.00 68 1007.6
20260505170545 9 320 0.0 0.0 0.00 0.00 0.00 70 1007.6
20260505170042 10 9 0.0 0.0 0.00 0.00 0.00 69 1007.7
20260505165537 10 48 3.2 3.2 0.00 0.00 0.00 69 1007.6
20260505165033 10 42 0.0 1.6 0.00 0.00 0.00 68 1007.6
20260505164529 10 319 0.0 1.6 0.00 0.00 0.00 67 1007.7
20260505164027 10 356 0.0 0.0 0.00 0.00 0.00 66 1007.4
20260505163525 10 193 0.0 1.6 0.00 0.00 0.00 66 1007.6
20260505163021 10 314 1.6 1.6 0.00 0.00 0.00 66 1007.4
20260505162515 10 321 0.0 1.6 0.00 0.00 0.00 66 1007.3
20260505162012 10 116 1.6 1.6 0.00 0.00 0.00 65 1007.1
20260505161509 10 307 0.0 0.0 0.00 0.00 0.00 65 1007.1
20260505161006 10 12 0.0 1.6 0.00 0.00 0.00 65 1007.1
20260505160504 10 17 0.0 0.0 0.00 0.00 0.00 65 1006.6
20260505152940 11 315 0.0 0.0 0.00 0.00 0.00 62 1006.9
20260505152437 11 20 0.0 0.0 0.00 0.00 0.00 62 1006.8
20260505151937 11 343 0.0 0.0 0.00 0.00 0.00 63 1006.8
20260505151428 11 307 0.0 1.6 0.00 0.00 0.00 62 1006.7
20260505150925 11 26 0.0 1.6 0.00 0.00 0.00 63 1006.7
20260505150422 11 37 0.0 1.6 0.00 0.00 0.00 62 1006.6
20260505140352 13 17 1.6 8.0 0.00 0.00 0.00 58 1006.1
20260505124806 19 215 1.6 4.8 0.00 0.00 0.00 38 1005.6
20260505124302 20 329 0.0 0.0 0.00 0.00 0.00 37 1005.5
20260505123758 20 253 1.6 3.2 0.00 0.00 0.00 35 1005.4
20260505123255 20 326 3.2 4.8 0.00 0.00 0.00 35 1005.1
20260505122751 21 33 3.2 4.8 0.00 0.00 0.00 32 1005.0
20260505122249 21 230 4.8 8.0 0.00 0.00 0.00 32 1005.1
20260505121745 21 271 6.4 9.7 0.00 0.00 0.00 32 1005.2
20260505121242 21 269 1.6 1.6 0.00 0.00 0.00 33 1005.1
20260505120738 21 238 6.4 9.7 0.00 0.00 0.00 32 1005.3
20260505120234 21 278 4.8 8.0 0.00 0.00 0.00 32 1005.1
20260505115733 21 301 3.2 3.2 0.00 0.00 0.00 33 1005.2
20260505115231 21 258 9.7 12.9 0.00 0.00 0.00 32 1005.2
20260505114728 20 341 0.0 0.0 0.00 0.00 0.00 33 1004.9
20260505114224 20 198 6.4 9.7 0.00 0.00 0.00 32 1005.2
20260505113721 20 276 0.0 0.0 0.00 0.00 0.00 33 1005.0
20260505113217 20 166 0.0 1.6 0.00 0.00 0.00 34 1005.4
20260505112713 21 200 4.8 8.0 0.00 0.00 0.00 33 1005.2
20260505112211 21 203 6.4 9.7 0.00 0.00 0.00 32 1005.2
20260505111706 21 296 0.0 0.0 0.00 0.00 0.00 35 1005.3
20260505111202 20 273 0.0 0.0 0.00 0.00 0.00 35 1005.2
20260505110658 20 210 3.2 4.8 0.00 0.00 0.00 35 1005.2
20260505110155 20 233 8.0 12.9 0.00 0.00 0.00 35 1005.4